Regional Weather Roundup
Issued by NWS Pendleton, OR

Home | Current Version | Previous Version | Text Only | Print | Product List | Glossary On
Versions: 1 2 3 4 5 6 7 8 9 10 11 12 13 14 15 16 17 18 19 20 21 22 23 24 25 26 27 28 29 30 31 32 33 34 35 36 37 38 39 40 41 42 43 44 45 46 47 48 49 50
000
ASUS46 KPDT 260125
RWRPDT
PENDLETON REGIONAL WEATHER ROUNDUP
NATIONAL WEATHER SERVICE PENDLETON OREGON
600 PM PDT WED MAY 25 2016

NOTE: FAIR INDICATES FEW OR NO CLOUDS BELOW 12,000 FEET WITH NO
SIGNIFICANT WEATHER AND/OR OBSTRUCTIONS TO VISIBILITY.

# INDICATES UNOFFICIAL STATION AND DATA

WAZ520-260210-
EAST SLOPES OF WASHINGTON CASCADES

CITY            SKY/WX      TMP DP  RH  WIND    PRES   REMARKS
#BUMPING DAM    N/A          0  -13 53  S6      N/A
#CLE ELUM HS    N/A         59  42  53  W10     30.02R
#CLE ELUM 2NW   N/A         59  41  51  SW2     N/A
#CLIFFDEL 2NW   N/A         25  12  57  W3      N/A
#GLENWOOD       N/A         64  47  54  S3      30.02S
#MANASTASH CYN  N/A         60  39  46  NE1     30.02R
#NELSON 3SW     N/A         56  42  59  CALM    30.23S
#NILE           N/A         62  42  48  W6      29.30R
#TEANAWAY 4NE   N/A         62  47  58  W2      N/A
#TROUT LAKE 1NE N/A         60  46  60  W14G25  30.06S
#TROUT LAKE 1E  N/A         61  47  60  CALM    30.06R
$$

WAZ521-260210-
SIMCOE HIGHLANDS

CITY            SKY/WX      TMP DP  RH  WIND    PRES   REMARKS
#GOLDENDALE     N/A          0  -9  65  NW10    N/A
#GOLDENDALE 1NE N/A         64  35  34  SW9     N/A
#GOLDENDALE 4W  N/A         64  52  65  W18     30.08F
#GOODNOE HILLS  N/A         67  49  52  W28     29.93S
#LYLE 6NE       N/A         60  48  64  SW15    30.03S
$$

WAZ026-260210-
KITTITAS VALLEY

CITY            SKY/WX      TMP DP  RH  WIND    PRES   REMARKS
ELLENSBURG AP   PTCLDY      67  42  40  NW25G33 30.01S
#ELLENSBURG CWU N/A         65  42  43  NW20    29.92R
#ELLENSBURG 3NE N/A         63  45  52  N16G30  30.01R
#ELLENSBURG     N/A         67  43  42  NW2     N/A
#ELLENSBURG 13S N/A         73  42  33  SE12    N/A
#KITTITAS 4N    N/A         63  43  48  W16     30.04S
#KITTITAS 3S    N/A         65  44  46  NW15G24 29.94R
#THORP 6N       N/A         59  43  55  W28G40  30.01S
$$

WAZ027-260210-
YAKIMA VALLEY

CITY            SKY/WX      TMP DP  RH  WIND    PRES   REMARKS
SUNNYSIDE AP    PTCLDY      75  49  40  W7      29.93F
YAKIMA AIRPORT  PTCLDY      76  43  31  N18     29.97S
YAKIMA-VAGABOND SUNNY       74  41  30  NW17    29.96S
#DONALD 2NE     N/A         79  10   7  W3      28.80S
#GRANDVIEW      N/A         78  43  29  W3      29.92F
#MABTON         N/A         77  51  40  NW5     29.93F
#NACHES 2SW     N/A         66  45  47  W13G26  30.00F
#TERRACE HTS    N/A         75  45  34  N7      29.90S
#TOPPENISH      N/A         75  48  38  CALM    29.84S
#WEST VALLEY    N/A         71  45  39  N8      29.92S
#W YAKIMA       N/A         70  45  41  W7      29.94F
#WHITE SWAN 5E  N/A         75  50  41  SW15    29.93S
#WILEY CITY 3W  N/A         74  41  30  CALM    29.94S
$$

WAZ028-260210-
LOWER COLUMBIA BASIN...WASHINGTON

CITY            SKY/WX      TMP DP  RH  WIND    PRES   REMARKS
PASCO           SUNNY       80  40  24  SW15    29.94F
PROSSER AWOS    N/A         79  46  31  SW6     29.96F
RICHLAND AWOS   SUNNY       80  45  29  S17G24  29.92F
#BENTON CITY    N/A         77  46  33  SW10G26 29.82F
#CONNELL 5N     N/A         77  46  33  S2      29.91F
#CONNELL 5NW    N/A         74  49  41  S7      29.87F
#ELTOPIA 6NW    N/A         75  50  41  S6      28.91F
#KAHLOTUS       N/A         74  43  33  SW6     29.92F
#KENNEWICK 3S   N/A         75  42  31  N7      29.93F
#PATERSON       N/A         74  48  40  NW15    29.92F
#SAGEMOOR 2W    N/A         73  50  44  S5      29.78S
#TOUCHET 2S     N/A         76  49  39  W6      29.91F
#WEST PASCO     N/A         79  49  35  S5      29.98F
$$

WAZ029-260210-
FOOTHILLS OF THE BLUES...WASHINGTON

CITY            SKY/WX      TMP DP  RH  WIND    PRES   REMARKS
WALLA WALLA AP  PTCLDY      73  43  34  SW7     29.98F
#CLYDE 6NW      N/A         74  45  35  SW7     29.93S
#DAYTON SCHOOL  N/A         71  40  32  E2      30.00S
#LOWDEN 2SE     N/A         77  49  37  W5      29.92F
#PLEASANT VIEW 1N/A         72  43  35  S7      29.98S
#PRESCOTT       N/A         75  48  38  CALM    29.93F
#SUDBURY        N/A         62  N/A N/A CALM    N/A
#WHITMAN COLLEGEN/A         74  46  37  W5      29.99F
#WAITSBURG 8N   N/A         72  20  14  SE8     29.79F
#WALLA WALLA 5E N/A         77  52  42  W1      N/A
#WALLA WALLA U  N/A         76  46  34  W2      29.93F
#WHITMAN MISSIONN/A         76  47  36  CALM    29.95F
$$

WAZ030-260210-
BLUE MOUNTAINS...WASHINGTON

CITY            SKY/WX      TMP DP  RH  WIND    PRES   REMARKS
#DIXIE 5SE      N/A         65  45  48  W5      29.97S
$$

ORZ009-041-WAZ024-260210-
COLUMBIA RIVER GORGE

CITY            SKY/WX      TMP DP  RH  WIND    PRES   REMARKS
HOOD RIVER AP   PTCLDY      64  46  52  W9      30.12S
THE DALLES AP   PTCLDY      69  44  40  W29G38  30.06S
#ARLINGTON AIRPON/A         68  48  49  W21     29.98F
#CELILO DOT     N/A         69  45  42  SW13    N/A
#LYLE           N/A         65  49  56  W21G36  30.09S
#MARYHILL 2W    N/A         65  49  56  W8      N/A
#MOSIER 1S      N/A         64  35  34  W10     30.06F
#MURDOCK        N/A         66  48  52  NW23G33 30.02S
#RUFUS DOT      N/A         69  47  45  W23     N/A
#SMITHIVILLE    N/A         67  48  50  N23G30  29.98R

$$

ORZ510-260210-
NORTH CENTRAL OREGON

CITY            SKY/WX      TMP DP  RH  WIND    PRES   REMARKS
#ANTELOPE       N/A         65  45  48  W3      29.89R
#CHENOWITH 1W   N/A         59  44  57  W35     N/A
#COW CYN RST AREN/A         61  N/A N/A W8      N/A
#DUFUR 9E       N/A         58  44  60  W25G36  30.10S
#GRASS VALLEY   N/A         59  44  57  W10     N/A
#GRASS VALLEY 1SN/A         61  45  56  NW14    30.01S
#KENT DOT       N/A         63  35  35  N15     N/A
#MAUPIN SCHOOL  N/A         68  47  47  W9      30.08R
#MORO SCHOOL    N/A         62  50  65  NW17G28 30.06S
#SHANIKO 4NW    N/A         58  -50  1  NW15    30.09F
#TYGH VALLEY 2NEN/A         68  45  44  N10     30.02S
#WAPANITIA AIRPON/A         62  45  54  W13     30.06R
#WASCO DOT      N/A         65  43  45  SW14    N/A
#WASCO 5NE      N/A         62  47  58  W14G26  30.01S
$$

ORZ511-260210-
CENTRAL OREGON

CITY            SKY/WX      TMP DP  RH  WIND    PRES   REMARKS
BEND AIRPORT    SUNNY       64  41  43  N12     30.08S
MADRAS AIRPORT  SUNNY       68  46  45  N18G25  30.11R
PRINEVILLE AP   SUNNY       66  43  43  NW15    30.07F
REDMOND AIRPORT MOCLDY      67  41  39  NW13    30.08R
#ASHWOOD SCHOOL N/A         66  43  43  W5      30.03R
#BEND 1SW       N/A         60  41  49  NE3     N/A
#BEND-AWBREY    N/A         68  43  40  N3      30.03S
#BEND-KIM LN    N/A         64  44  48  NW3     30.07R
#CULVER         N/A         63  45  52  N7      30.00R
#CULVER 8W      N/A         62  43  50  CALM    30.07S
#LAKE BILLY CHINN/A         64  N/A N/A NE7     30.13R
#MADRAS 4S      N/A         61  16  17  N14     30.16R
#POWELL BUTTE 3EN/A         64  40  41  NW6     N/A
#POWELL BUTTE   N/A         62  45  54  N2      29.95S
#PRINEVILLE 3N  N/A         64  47  54  N10     30.00S
#WARM SPRINGS   N/A         64  44  48  CALM    30.04R

$$


ORZ509-260210-
EAST SLOPES OF OREGON CASCADES

CITY            SKY/WX      TMP DP  RH  WIND    PRES   REMARKS
SISTERS AWOS    N/A         61  43  51  W13G28  30.07S
#BLUE BOX PASS  N/A         46  N/A N/A SW2     N/A
#CAMP SHERMAN   N/A         59  40  49  N3      30.16R
#LA PINE DOT    N/A         62  29  28  W13     N/A
#LA PINE 4NW    N/A         59  40  49  N5      30.08R
#LAVA BUTTE DOT N/A         62  33  34  N2      N/A
#SISTERS AIRPOR N/A         61  50  67  N7      30.17S
#SISTERS ODOT   N/A         61  N/A N/A SE8     N/A
#SISTERS 3N     N/A         61  41  48  S2      30.08S
#SUNRIVER       N/A         60  42  51  CALM    30.05S
#SUTTLE LK DOT  N/A         51  40  66  CALM    N/A
#TUMALO 3W      N/A         61  41  48  NW9     29.92S
#WANOGA BUTTE D N/A         50  36  58  SE1     N/A

$$

ORZ044-260210-
LOWER COLUMBIA BASIN...OREGON

CITY            SKY/WX      TMP DP  RH  WIND    PRES   REMARKS
HERMISTON       PTCLDY      77  44  31  W15G25  29.96S
#BOARDMAN SCHOOLN/A         74  48  40  SW13G24 29.96S
#ECHO 8SW       N/A         73  47  40  W7      29.98S
#I-84 EX 198 DOTN/A         73  45  37  E21     N/A
#IRRIGON 4NW    N/A         29  23  78  S5      N/A
#UMATILLA SCHOOLN/A         76  56  50  W8      30.02S
#UMATILLA       N/A         76  46  34  W12     29.88S
$$

ORZ507-260210-
NORTHERN FOOTHILLS OF THE BLUES

CITY            SKY/WX      TMP DP  RH  WIND    PRES   REMARKS
PENDLETON AIRPT PTCLDY      74  41  30  W20G26  29.99S
#ADAMS 3WNW     N/A         72  46  39  W8      29.96S
#ATHENA         N/A         71  47  42  CALM    29.98F
#CAYUSE         N/A         71  48  44  W9      29.95S
#HELIX SCHOOL   N/A         71  44  38  W6      29.96S
#HELIX 3N       N/A         69  47  45  W7      29.97F
#HOLDMAN 5SE    N/A         72  48  43  W8      29.98S
#HOLDMAN 6E     N/A         71  44  38  E8      29.77S
#M-F GROVE ELEM N/A         75  40  28  W2      29.96S
#M-FREEWATER 5SEN/A         74  49  41  W5      29.97F
#PENDLETON DNTN N/A         75  42  31  W3      29.98S
#PDT AQUATIC CTRN/A         77  44  31  W7      30.02S
#PDT SUNRIDGE   N/A         74  45  35  NW7     29.99S
#PENDLETON 7NW  N/A         73  50  44  W6      32.27S
#PILOT ROCK 1S  N/A         70  43  38  W1      30.00S
#PILOT ROCK     N/A         71  46  41  N5      30.01F
#TUTUILLA       N/A         73  47  40  CALM    29.97S
#UMAPINE 2E     N/A         78  50  38  CALM    29.93F
#WESTON SCHOOL  N/A         70  40  34  NE2     29.87F

$$

ORZ508-260210-
SOUTHERN FOOTHILLS OF THE BLUES

CITY            SKY/WX      TMP DP  RH  WIND    PRES   REMARKS
LEXINGTON       PTCLDY      68  45  44  W16G26  30.05S
#AJAX           N/A         62  39  43  S14     27.81R
#CONDON SCHOOL  N/A         63  46  54  NW13    30.01S
#CONDON 5W      N/A         60  43  53  NW16    30.04S
#FOSSIL SCHOOL  N/A         67  43  42  W7      29.99S
#HEPPNER EOC    N/A         66  45  47  W13     29.92S
#HEPPNER 4NE    N/A         63  46  54  W14     29.98S
#LEXINGTON 2SE  N/A         70  46  42  W15     29.98R
#OLEX 4N        N/A         66  46  48  W20G30  30.01S
#RUGGS 5NE      N/A         66  43  43  W15     30.20R
#RUGGS 2SW      N/A         66  45  47  NW15    30.00S

$$

ORZ502-503-260210-
BLUE MOUNTAINS

CITY            SKY/WX      TMP DP  RH  WIND    PRES   REMARKS
MEACHAM         PTCLDY      62  38  41  VRB6    30.06S
#BATTLE MTN DOT N/A         57  42  57  NW1     N/A
#CUTSFORTH PARK N/A         56  44  64  CALM    29.85S
#GREENHORN 9SW  N/A         60  45  58  E2      26.24S
#HARDMAN 10S    N/A         61  34  36  N5      30.22S
#HEPPNER 15SE   N/A         58  44  60  W2      25.60S
#LADD CYN SMT   N/A         65  33  30  NW10    N/A
#LADD CREEK ODOTN/A         66  39  37  NE10    N/A
#LONG CREEK HS  N/A         63  44  50  CALM    N/A
#N POWDER DOT   N/A         65  40  40  N13     N/A
#PIKES PEAK     N/A         62  44  52  W5      27.99S
#TOLLGATE       N/A         56  43  62  CALM    29.95S
#TROY SCHOOL    N/A         65  50  58  CALM    29.84F
#UKIAH          N/A         65  42  43  NW5     29.92F
#WESTON 4E      N/A         64  44  48  SW6     29.95F
$$

ORZ505-260210-
JOHN DAY BASIN

CITY            SKY/WX      TMP DP  RH  WIND    PRES   REMARKS
JOHN DAY        N/A         N/A N/A N/A MISG    N/A
#DAYVILLE SCHOOLN/A         72  36  27  N1      29.98S
#MITCHELL       N/A         69  44  40  CALM    30.19F
#MITCHELL 8NW   N/A         67  40  37  NW3     30.20S
#MONUMENT HS    N/A         73  36  26  NW6     29.94F
#MT. VERNON 5SE N/A         63  40  43  W1      30.01S
#SPRAY SCHOOL   N/A         75  N/A N/A CALM    N/A
#WINLOCK        N/A         66  43  43  CALM    30.01S
$$

ORZ506-260210-
OCHOCO AND JOHN DAY HIGHLANDS

CITY            SKY/WX      TMP DP  RH  WIND    PRES   REMARKS
#BUCK CREEK DOT N/A         61  39  44  W8      N/A
#HORSE RIDGE DO N/A         61  36  39  NW10    N/A
#KEYES SMT DOT  N/A         59  37  44  W5      N/A
#PAULINA SCHOOL N/A         65  35  33  W1      N/A
#PINE MTN OBS   N/A         52  37  56  NW10    N/A
#PRAIRIE CITY   N/A         61  44  53  CALM    30.18S
#SENECA         N/A         63  N/A N/A N6      N/A
#SENECA 9NW     N/A         61  38  42  CALM    29.99S
$$

ORZ049-260210-
GRANDE RONDE VALLEY

CITY            SKY/WX      TMP DP  RH  WIND    PRES   REMARKS
LA GRANDE       PTCLDY      66  39  37  N13     30.01S
#COVE           N/A         59  54  83  NE7     30.05S
#COVE SCHOOL    N/A         63  51  65  NE3     30.04S
#COVE 6NW       N/A         66  43  43  N7      29.89F
#ELGIN 3N       N/A         65  46  50  CALM    30.00S
#ELGIN 1E       N/A         68  47  47  CALM    N/A
#IMBLER SCHOOL  N/A         63  46  54  NE2     29.98S
#ISLAND CITY 4N N/A         63  53  70  CALM    30.18R
#LADD CYN DOT   N/A         68  42  39  NW9     N/A
#UNION 1S       N/A         68  48  49  N2      29.87S
$$

ORZ050-260210-
WALLOWA COUNTY

CITY            SKY/WX      TMP DP  RH  WIND    PRES   REMARKS
JOSEPH AIRPORT  CLOUDY      57  43  59  N5      30.08R
#ENTERPRISE AP  N/A         49  29  46  CALM    29.99R
#ENTERPRISE HS  N/A         60  46  60  NE2     30.05R
#IMNAHA SCHOOL  N/A         67  47  49  CALM    29.99S
#IMNAHA 10S     N/A         65  46  50  CALM    30.01R
#JOSEPH 3N      N/A         57  41  55  N2      30.08R
#JOSEPH 3W      N/A         56  46  69  NE2     29.91S
#LOSTINE        N/A         63  45  52  NW1     29.82S
#LOSTINE 3SE    N/A         63  45  52  N6      30.04R
#MT HOWARD 8000 N/A         38  36  92  NW5     30.16S
#PROMISE 1S     N/A         56  45  66  CALM    30.13F
#WALLOWA SCHOOL N/A         62  45  54  CALM    30.00S



$$



USA.gov is the U.S. government's official web portal to all federal, state and local government web resources and services.